FENGYUN 1C DEB, 33682

Orbit data source: Space-Track

FENGYUN 1C DEB, 33682 is space debris in SSO originally from a launch on Mon, 10 May 1999 UTC launched from the Taiyaun Space Center, China (TSC). Fengyun 1C debris stems from the Chinese weather satellite Fengyun-1C, which was intentionally destroyed by a Chinese anti-satellite missile in 2007. This event dramatically increased the amount of space debris, with thousands of trackable fragments posing hazards to satellites and human spaceflight. The Fengyun 1C debris cloud has become a focal point in discussions about space sustainability and the need for international regulations to prevent the creation of new debris.

Loading next visibility...
Identifier
33682, 1999-025DFT
Orbit
SSO
Country
Flag of CNCN / PRC
Related business
Manufacturer
Unknown
Mission
Spacecraft
Bus & Motor
Unknown
Mass
Unknown
Launch date (UTC)
1999-05-10 (27 years ago)
Launch vehicle
Unknown
Launch site
Taiyaun Space Center, China (TSC)
Object type
Payload
Rocket body
Debris
Shape & HBR
Unknown shape, 0.1 m
Radar Cross Section
Small (<0.1 m²)

Expand to show TLE details & history
Last TLE update: 2 weeks ago

TLE from 2 weeks ago
0 FENGYUN 1C DEB
1 33682U 99025DFT 26151.13598083  .00003470  00000-0  14191-2 0  9991
2 33682  99.4065 215.5689 0026199 319.9021  40.0223 14.27788419941146
Epoch: 2026-05-31T03:15Z
TLE epoch observation values (Epoch: 2026-05-31T03:15:48.743Z)
Latitude
-0.00008°
Longitude
-82.02618°
Altitude
787.652 km
Speed
7.467 km/s
True Right ascension
14h 22m 16s
True Declination
0° 00' 00"
Sunlit
Object was in full shadow at epoch
Visualization orbit readout
Latitude
Unknown
Longitude
Unknown
Altitude
Unknown
Speed
Unknown
Apparent Right ascension
Unknown
Apparent Declination
Unknown
Sunlit
N/A
Visualization observer readout
Local Sidereal Time
11:45:24
Azimuth
Unknown
Elevation
Unknown
Doppler factor
Unknown
Orbital elements
Apogee altitude
815.112 km
Perigee altitude
777.519 km
Semi-major axis
7,174.453 km
Eccentricity
0.00262
Inclination
99.4065°
RAAN
215.5689°
Arg. of periapsis
319.9021°
True anomaly
40.21585°
Mean anomaly
40.0223°
Eccentric anomaly
40.11903°
Mean motion
3.57158 °/min
Orbital period
100.8 mins
BSTAR
0.0014191
Loading maneuver chart data...
Computing Atmospheric mass density...

Documentation

Showing up to 5 results
|